Showing default

BEIDOU 3 G3, 45807

Orbit data source: Space-Track

BEIDOU 3 G3, 45807 is a payload satellite owned by CNSA (CN) in GEO that was launched on Tue, 23 Jun 2020 UTC via a CHANG ZHENG 3B launch vehicle from the Xichang Space Center, China (XSC). Payloads include a variety of satellites, spacecraft, and rockets equipped with specific instruments for various scientific and technological missions. These include communications satellites like Starlink; space stations such as the ISS; scientific satellites like the Hubble; Earth observation satellites from companies like Planet Labs, Umbra, and HawkEye 360; GPS; miniature CubeSats for education and research; and military/defense satellites.

Not visible in the next 10 days
BEIDOU 3 G3 details
Identifier
45807, 2020-040A
Orbit
GEO
Last TLE update20 hours ago
Origin
Flag of CNCNSA (CN / PRC)
ManufacturerCAST
MissionOperational Defense Navigation
Bus & MotorDFH-3B, FY-25
Mass~3,060 kg wet, 1,700 kg dry
Launch date (UTC)
2020-06-23 (5 years ago)
Launch vehicle
CHANG ZHENG 3B
Launch site
Xichang Space Center, China (XSC)
Object type
Payload
Rocket body
Debris
Shape & HBRBox + 2 Pan, Unknown HBR
Radar Cross Section13.998 m², Large (>1 m²)

Expand to show TLE details & history

TLE from 20 hours ago
0 BEIDOU 3 G3
1 45807U 20040A   25014.65070122 -.00000356  00000-0  00000-0 0  9990
2 45807   1.2059  59.1603 0003545 303.1408  96.8325  1.00273622 16871
Epoch: 2025-01-14T15:37Z
Definitive object data (Epoch: 2025-01-14T15:37:00.585Z)
Latitude0.79589°
Longitude110.58833°
Altitude35,787.316 km
Speed3.075 km/s
True Right ascension06h 36m 46s
True Declination0° 47' 42"
Sunlit
Object was in daylight at TLE epoch
Visualization TLE readout
Latitude-0.3867°
Longitude52.17456°
Altitude35,774.12 km
Speed3.076 km/s
Apparent Right ascension02h 28m 56s
Apparent Declination-5° 22' 59"
Sunlit
Object is in daylight
Visualization observer readout
Local Sidereal Time12:20:17
Azimuth311.5° NW
Elevation-44.961°
Doppler factor1
Orbital elements
Apogee altitude35,802.097 km
Perigee altitude35,772.202 km
Semi-major axis42,165.287 km
Eccentricity0.0003545
Inclination1.2059°
RAAN59.1603°
Arg. of periapsis303.1408°
True anomaly96.87283°
Mean anomaly96.8325°
Eccentric anomaly96.85267°
Mean motion0.25067 °/min
BSTARUnknown
Orbital period1436.12 mins
Loading historical data...
45807 neighbors
Authenticating...
Loading maneuver chart data...
Loading historical data...
Loading historical data...
Loading historical data...
Loading historical data...
Loading historical data...
Loading historical data...
Loading historical data...
Other satellites on launch #40 in the year 2020 (2020-06-23 UTC)

BEIDOU 3 G3 Visibility forecast

Observer location: undefined°, undefined

BEIDOU 3 G3 is not visible in the next 10 days
Span
Click to sort rows by Start time (UTC) header in descending order
Start Az.
Max El. time (UTC)
Max El. Az.
Max El.
End time (UTC)
End Az.
|